Location: Kumla
(59.1265°N, 15.1401°E)
Time: 07:35:44
(UTC+01:00)

Transit 4A - Pass Details

Date: 03 December 2023
Orbit: 870 x 973 km, 66.8° (Epoch: 02 March)

Event Time Altitude Azimuth Distance (km) Brightness Sun altitude
Exits shadow 03:42:20 44° 111° (ESE) 1,264 8.8 -34.9°
Drops below altitude 10° 03:46:20 10° 122° (ESE) 2,598 10.7 -34.4°
Sets 03:48:49 0° 124° (SE) 3,522 11.4 -34.1°
